Tracking 18816 objects as of 17-October-2017
HD Live streaming from Space Station
objects crossing your sky now

N-1 R/B

Track N-1 R/B now!
10-day predictions


NORAD ID: 8710
Int'l Code: 1976-019B
Perigee: 999.3 km
Apogee: 1,015.2 km
Inclination: 69.7 °
Period: 105.1 minutes
Semi major axis: 7378 km
RCS: 1.547 m2 (large)
Launch date: February 29, 1976
Source: Japan (JPN)
Launch site: TANEGASHIMA SPACE CENTER (TNSTA)

Note: This is a ROCKET BODY
aabbcc
Your satellite tracking list
Your tracking list is empty





NASA's NSSDC Master Catalog

Two Line Element Set (TLE):
1  8710U 76019B   17289.65473010 -.00000021 +00000-0 +35000-4 0  9998
2  8710 069.6760 308.4756 0010797 141.0027 357.7544 13.69842763081535
Source of the keplerian elements: AFSPC